Location: Baix
(44.7118°N, 4.7648°E)
Time: 12:58:24
(UTC+00:00)

Vanguard 2 Rocket - Pass Details

Date: 04 December 2020
Orbit: 554 x 3325 km, 32.9° (Epoch: 23 January)

Event Time Altitude Azimuth Distance (km) Brightness Sun altitude
Rises 12:30:52 0° 278° (W) 7,183 11.6 21.6°
Reaches altitude 10° 12:37:31 10° 267° (W) 5,882 11.3 21.3°
Maximum altitude 12:49:02 22° 225° (SW) 4,130 11.7 20.6°
Drops below altitude 10° 12:57:37 10° 180° (S) 4,234 11.8 20.1°
Sets 13:01:24 0° 165° (SSE) 4,797 11.5 19.9°
